Hourly Data Report for October 11, 2013

All times are specified in Local Standard Time (LST). Add 1 hour to adjust for Daylight Saving Time where and when it is observed.

GJOA HAVEN A
NUNAVUT

68°38'08.000" N
95°51'01.000" W
46.90 m
2302337
71597
YHK

Download Data

Hourly Data (October 2013)
Hourly Data Report for October 11, 2013
Temp Definition
°C
Dew Point Temp Definition
°C
Rel Hum Definition
%
Wind Dir Definition
10's deg

Wind Spd Definition
km/h
Visibility Definition
km
Stn Press Definition
kPa
Hmdx Definition


Wind Chill Definition


Weather Definition


TIME
00:00 Legend Double Dagger 0.2 0.1 99 16 37 3.2 99.50     LegendNANA
01:00 Legend Double Dagger 0.2 0.1 99 17 37 4.8 99.45     LegendNANA
02:00 Legend Double Dagger 0.5 0.2 98 17 39 8.1 99.40     LegendNANA
03:00 Legend Double Dagger 0.9 0.6 98 18 37 16.1 99.35     LegendNANA
04:00 Legend Double Dagger 0.9 0.6 98 19 35 16.1 99.34     LegendNANA
05:00 Legend Double Dagger 0.8 0.7 99 21 37 3.2 99.36     LegendNANA
06:00 Legend Double Dagger 0.5 0.4 99 20 37 0.2 99.38     LegendNANA
07:00 Legend Double Dagger 0.6 0.5 99 20 33 0.2 99.39     LegendNANA
08:00 Legend Double Dagger 0.9 0.8 99 20 39 0.2 99.39     LegendNANA
09:00 Legend Double Dagger 0.7 0.7 100 21 30 0.4 99.42     LegendNANA
10:00 Legend Double Dagger 0.7 0.7 100 21 39 1.0 99.41     LegendNANA
11:00 Legend Double Dagger 0.3 0.3 100 21 35 0.2 99.45     LegendNANA
12:00 Legend Double Dagger 0.1 0.1 100 21 35 0.2 99.47     LegendNANA
13:00 Legend Double Dagger 0.3 0.3 100 21 30 16.1 99.50     LegendNANA
14:00 Legend Double Dagger 0.2 0.2 100 21 28 0.8 99.52     LegendNANA
15:00 Legend Double Dagger 0.2 0.2 100 20 28 16.1 99.56     LegendNANA
16:00 Legend Double Dagger -0.1 -0.2 99 21 30 4.8 99.58   -7 LegendNANA
17:00 Legend Double Dagger -0.3 -0.3 100 20 37 2.4 99.60   -8 LegendNANA
18:00 Legend Double Dagger -0.3 -0.3 100 21 37 4.0 99.60   -8 LegendNANA
19:00 Legend Double Dagger -0.6 -0.7 99 20 33 8.1 99.57   -8 LegendNANA
20:00 Legend Double Dagger -0.5 -0.6 99 20 35 16.1 99.54   -8 LegendNANA
21:00 Legend Double Dagger -0.3 -0.4 99 20 35 16.1 99.49   -7 LegendNANA
22:00 Legend Double Dagger 0.0 -0.1 99 19 37 16.1 99.46   -7 LegendNANA
23:00 Legend Double Dagger 0.2 0.1 99 20 37 4.8 99.47     LegendNANA

Notes on Data Quality.

Legend

  • E = Estimated
  • M = Missing
  • NA = Not Available
  • ‡ = Partner data that is not subject to review by the National Climate Archives
Date modified: